Location: San Martino di Castrozza
(46.2667°N, 11.8000°E)
Time: 14:34:54
(UTC+00:00)

Cosmos 1937 Rocket - Pass Details

Date: 23 April 2021
Orbit: 746 x 780 km, 74.0° (Epoch: 12 May)

Event Time Altitude Azimuth Distance (km) Brightness Sun altitude
Exits shadow 01:50:18 49° 229° (SW) 964 3.6 -21.2°
Maximum altitude 01:51:36 70° 293° (WNW) 798 3.4 -21.0°
Drops below altitude 10° 01:56:44 10° 18° (NNE) 2,275 6.9 -20.4°
Sets 01:59:07 0° 21° (NNE) 3,205 7.9 -20.1°
